Home > Time Zones > World Clock > Weather > U.S.A. > Knox > Past weeks

Flag for U.S.A. Weather past 2 weeks in Knox, Indiana, U.S.A.

Now
49 °F

Clear.


Feels Like: 49 °F
Forecast: 43 / 69 °F
Wind: No wind

Location: Porter County Municipal Airport

Current Time: Sep 22, 2014 at 9:27:09 PM

Latest Report: Sep 22, 2014 at 8:53 PM


Visibility: 10 mi

Pressure: 30.27 "Hg

Humidity: 84%

Dew point: 44 °F

Location of KnoxLocation

Historic Weather in Knox — Graph

°F

Knox temperature yesterday

Maximum temperature yesterday: 68 °F (at 12:53 AM)
Minimum temperature yesterday: 53 °F (at 11:53 PM)
Average temperature yesterday: 60 °F

Past Weeks' High & Low Weather Summary

 TemperatureHumidityPressure
High81 °F (Sep 20, 1:53 PM)100% (Sep 8, 3:53 AM)30.36 "Hg (Sep 8, 3:53 AM)
Low40 °F (Sep 14, 1:53 AM)37% (Sep 19, 3:53 PM)29.59 "Hg (Sep 10, 4:53 PM)
Average58 °F78%30.09 "Hg
* Reported Sep 7 7:53 PM — Sep 22 7:53 PM, Knox, Weather by CustomWeather, © 2014

Note: Actual official high and low records may vary slightly from our data, if they occured in-between our weather recording intervals... More about our weather records

Advertising

Knox weather history for previous 24 hours

 ConditionsComfort  
Time TempWeatherWind HumidityBarometerVisibility
7:53 PM
Sep 22
51 °FClear.No wind77%30.27 "Hg10 mi
6:53 PM54 °FClear.No wind72%30.26 "Hg10 mi
5:53 PM59 °FSunny.3 mph60%30.25 "Hg10 mi
4:53 PM62 °FSunny.8 mph46%30.26 "Hg10 mi
3:53 PM62 °FSunny.8 mph52%30.26 "Hg10 mi
2:53 PM63 °FSunny.6 mph50%30.27 "Hg10 mi
1:53 PM63 °FSunny.6 mph50%30.27 "Hg10 mi
12:53 PM62 °FSunny.8 mph52%30.28 "Hg10 mi
11:53 AM60 °FSunny.8 mph58%30.29 "Hg10 mi
10:53 AM59 °FPassing clouds.10 mph58%30.29 "Hg10 mi
9:53 AM54 °FSunny.No wind69%30.29 "Hg10 mi
8:53 AM50 °FPassing clouds.No wind77%30.28 "Hg10 mi
7:53 AM49 °FOvercast.7 mph80%30.26 "Hg10 mi
6:53 AM48 °FOvercast.5 mph89%30.24 "Hg10 mi
5:53 AM50 °FPassing clouds.5 mph74%30.20 "Hg10 mi
4:53 AM50 °FPassing clouds.3 mph74%30.18 "Hg10 mi
3:53 AM52 °FPassing clouds.8 mph69%30.16 "Hg10 mi
2:53 AM51 °FPassing clouds.5 mph74%30.15 "Hg10 mi
1:53 AM51 °FPassing clouds.6 mph77%30.14 "Hg10 mi
12:53 AM52 °FClear.5 mph80%30.14 "Hg10 mi
11:53 PM
Sep 21
53 °FClear.3 mph80%30.12 "Hg10 mi
10:53 PM54 °FPassing clouds.5 mph77%30.11 "Hg10 mi
9:53 PM54 °FPassing clouds.5 mph80%30.11 "Hg10 mi
Weather by CustomWeather, © 2014

See weather overviewHow to use our weather pages